Weather History for Lancaster, TX

Change the Weather History Date:

Sunday, November 4, 2012

  Actual Average (KRBD) Record (KRBD)
Temperature  
Mean Temperature 61 °F -  
Max Temperature 71 °F 66 °F 82 °F (2007)
Min Temperature 51 °F 49 °F 35 °F (2011)
Degree Days  
Heating Degree Days 4    
Growing Degree Days 11 (Base 50)    
Moisture  
Dew Point 48 °F    
Average Humidity 65    
Maximum Humidity 94    
Minimum Humidity 41    
Precipitation  
Precipitation 0.00 in - - ()
Sea Level Pressure  
Sea Level Pressure 30.10 in    
Wind  
Wind Speed 3 mph (North)    
Max Wind Speed 8 mph    
Max Gust Speed -    
Visibility 10 miles    
Events      
Averages and records for this station are not official NWS values.
T = Trace of Precipitation, MM = Missing Value Source: NWS Daily Summary

Daily Weather History Graph

Daily Weather History Graph

Search for Another Location

Airport:

Trip Planner

Search our weather history database for the weather conditions in past years. The results will help you decide how hot, cold, wet, or windy it might be!

Date:

Astronomy

Nov. 04, 2012 Rise Set
Actual Time 6:47 AM CST 5:33 PM CST
Civil Twilight 6:21 AM CST 5:58 PM CST
Nautical Twilight 5:52 AM CST 6:27 PM CST
Astronomical Twilight 5:23 AM CST 6:56 PM CST
Moon 10:14 PM CST (11/4) 11:28 AM CST (11/4)
Length of Visible Light 11h 36m
Length of Day
10h 45m
Waning Gibbous, 72% of the Moon is Illuminated
Nov 4
Waning Gibbous
Nov 6
Last Quarter
Nov 13
New
Nov 20
First Quarter
Nov 28
Full

Hourly Weather History & Observations

Time (CST) Temp. Dew Point Humidity Pressure Visibility Wind Dir Wind Speed Gust Speed Precip Events Conditions
12:15 AM 59.0 °F 55.4 °F 88% 30.10 in 10.0 mi NNW 8.1 mph - N/A   Clear
12:35 AM 59.0 °F 51.8 °F 77% 30.10 in 10.0 mi North 6.9 mph - N/A   Clear
12:55 AM 59.0 °F 50.0 °F 72% 30.10 in 10.0 mi NNW 5.8 mph - N/A   Clear
1:15 AM 59.0 °F 50.0 °F 72% 30.09 in 10.0 mi NNW 6.9 mph - N/A   Clear
1:35 AM 57.2 °F 48.2 °F 72% 30.09 in 10.0 mi North 4.6 mph - N/A   Clear
1:55 AM 59.0 °F 46.4 °F 63% 30.10 in 10.0 mi North 3.5 mph - N/A   Clear
1:15 AM 57.2 °F 46.4 °F 67% 30.10 in 10.0 mi Calm Calm - N/A   Clear
1:35 AM 55.4 °F 46.4 °F 72% 30.10 in 10.0 mi Calm Calm - N/A   Clear
1:55 AM 55.4 °F 48.2 °F 77% 30.10 in 10.0 mi Calm Calm - N/A   Clear
2:15 AM 55.4 °F 46.4 °F 72% 30.10 in 10.0 mi NNW 5.8 mph - N/A   Clear
2:35 AM 55.4 °F 46.4 °F 72% 30.09 in 10.0 mi NNW 6.9 mph - N/A   Clear
2:55 AM 55.4 °F 44.6 °F 67% 30.09 in 10.0 mi North 6.9 mph - N/A   Clear
3:15 AM 55.4 °F 44.6 °F 67% 30.10 in 10.0 mi NNW 4.6 mph - N/A   Clear
3:35 AM 55.4 °F 46.4 °F 72% 30.11 in 10.0 mi Calm Calm - N/A   Clear
3:55 AM 55.4 °F 44.6 °F 67% 30.11 in 10.0 mi North 3.5 mph - N/A   Clear
4:15 AM 53.6 °F 44.6 °F 72% 30.10 in 10.0 mi North 5.8 mph - N/A   Clear
4:35 AM 55.4 °F 42.8 °F 63% 30.12 in 10.0 mi North 3.5 mph - N/A   Clear
4:55 AM 53.6 °F 44.6 °F 72% 30.12 in 10.0 mi North 4.6 mph - N/A   Clear
5:15 AM 53.6 °F 44.6 °F 72% 30.12 in 10.0 mi North 5.8 mph - N/A   Clear
5:35 AM 53.6 °F 44.6 °F 72% 30.12 in 10.0 mi North 4.6 mph - N/A   Clear
5:55 AM 53.6 °F 44.6 °F 72% 30.12 in 10.0 mi North 5.8 mph - N/A   Clear
6:15 AM 53.6 °F 42.8 °F 67% 30.12 in 10.0 mi NE 3.5 mph - N/A   Clear
6:35 AM 53.6 °F 44.6 °F 72% 30.14 in 10.0 mi NNW 3.5 mph - N/A   Scattered Clouds
6:55 AM 51.8 °F 44.6 °F 76% 30.14 in 10.0 mi North 3.5 mph - N/A   Mostly Cloudy
7:15 AM 51.8 °F 44.6 °F 76% 30.16 in 10.0 mi Calm Calm - N/A   Scattered Clouds
7:35 AM 51.8 °F 46.4 °F 82% 30.16 in 10.0 mi Calm Calm - N/A   Clear
7:55 AM 53.6 °F 46.4 °F 77% 30.16 in 10.0 mi Calm Calm - N/A   Clear
8:15 AM 55.4 °F 44.6 °F 67% 30.16 in 10.0 mi NNW 3.5 mph - N/A   Clear
8:35 AM 55.4 °F 44.6 °F 67% 30.15 in 10.0 mi North 5.8 mph - N/A   Clear
8:55 AM 59.0 °F 44.6 °F 59% 30.15 in 10.0 mi NNE 4.6 mph - N/A   Clear
9:15 AM 59.0 °F 44.6 °F 59% 30.15 in 10.0 mi Calm Calm - N/A   Clear
9:35 AM 59.0 °F 44.6 °F 59% 30.15 in 10.0 mi Calm Calm - N/A   Clear
9:55 AM 60.8 °F 46.4 °F 59% 30.17 in 10.0 mi NW 3.5 mph - N/A   Clear
10:15 AM 62.6 °F 46.4 °F 55% 30.16 in 10.0 mi Calm Calm - N/A   Clear
10:35 AM 62.6 °F 46.4 °F 55% 30.15 in 10.0 mi Calm Calm - N/A   Clear
10:55 AM 64.4 °F 46.4 °F 52% 30.15 in 10.0 mi Calm Calm - N/A   Clear
11:15 AM 64.4 °F 48.2 °F 56% 30.14 in 10.0 mi NNE 5.8 mph - N/A   Clear
11:35 AM 66.2 °F 48.2 °F 52% 30.13 in 10.0 mi Calm Calm - N/A   Clear
11:55 AM 68.0 °F 46.4 °F 46% 30.13 in 10.0 mi Calm Calm - N/A   Clear
12:15 PM 68.0 °F 46.4 °F 46% 30.12 in 7.0 mi Calm Calm - N/A   Clear
12:35 PM 69.8 °F 50.0 °F 49% 30.11 in 10.0 mi North 3.5 mph - N/A   Clear
12:55 PM 69.8 °F 46.4 °F 43% 30.10 in 10.0 mi ENE 3.5 mph - N/A   Clear
1:15 PM 69.8 °F 50.0 °F 49% 30.10 in 10.0 mi North 6.9 mph - N/A   Clear
1:35 PM 69.8 °F 46.4 °F 43% 30.09 in 10.0 mi North 3.5 mph - N/A   Clear
1:55 PM 71.6 °F 46.4 °F 41% 30.08 in 10.0 mi Calm Calm - N/A   Clear
2:15 PM 71.6 °F 46.4 °F 41% 30.08 in 10.0 mi NW 5.8 mph - N/A   Clear
2:35 PM 71.6 °F 46.4 °F 41% 30.07 in 10.0 mi Calm Calm - N/A   Clear
2:55 PM 71.6 °F 50.0 °F 46% 30.07 in 10.0 mi NNW 5.8 mph - N/A   Clear
3:15 PM 71.6 °F 46.4 °F 41% 30.07 in 10.0 mi Calm Calm - N/A   Clear
3:35 PM 71.6 °F 48.2 °F 43% 30.06 in 10.0 mi NW 3.5 mph - N/A   Clear
3:55 PM 71.6 °F 46.4 °F 41% 30.06 in 10.0 mi Calm Calm - N/A   Clear
4:15 PM 71.6 °F 46.4 °F 41% 30.06 in 10.0 mi Calm Calm - N/A   Clear
4:35 PM 71.6 °F 46.4 °F 41% 30.06 in 10.0 mi Calm Calm - N/A   Clear
4:55 PM 71.6 °F 48.2 °F 43% 30.05 in 10.0 mi Calm Calm - N/A   Clear
5:15 PM 69.8 °F 46.4 °F 43% 30.05 in 10.0 mi Calm Calm - N/A   Clear
5:35 PM 69.8 °F 51.8 °F 53% 30.06 in 10.0 mi Calm Calm - N/A   Clear
5:55 PM 64.4 °F 55.4 °F 73% 30.06 in 10.0 mi Calm Calm - N/A   Clear
6:15 PM 62.6 °F 55.4 °F 77% 30.07 in 10.0 mi Calm Calm - N/A   Clear
6:35 PM 62.6 °F 51.8 °F 68% 30.07 in 10.0 mi Calm Calm - N/A   Clear
6:55 PM 62.6 °F 51.8 °F 68% 30.07 in 10.0 mi Calm Calm - N/A   Clear
7:15 PM 60.8 °F 55.4 °F 82% 30.08 in 10.0 mi Calm Calm - N/A   Clear
7:35 PM 60.8 °F 51.8 °F 72% 30.08 in 10.0 mi Calm Calm - N/A   Clear
7:55 PM 60.8 °F 53.6 °F 77% 30.08 in 10.0 mi Calm Calm - N/A   Clear
8:15 PM 57.2 °F 53.6 °F 88% 30.09 in 10.0 mi Calm Calm - N/A   Clear
8:35 PM 59.0 °F 51.8 °F 77% 30.09 in 10.0 mi Calm Calm - N/A   Clear
8:55 PM 57.2 °F 53.6 °F 88% 30.08 in 10.0 mi Calm Calm - N/A   Clear
9:15 PM 55.4 °F 53.6 °F 94% 30.09 in 10.0 mi Calm Calm - N/A   Clear
9:35 PM 55.4 °F 53.6 °F 94% 30.09 in 10.0 mi Calm Calm - N/A   Clear
9:55 PM 55.4 °F 51.8 °F 88% 30.09 in 10.0 mi Calm Calm - N/A   Clear
10:15 PM 55.4 °F 51.8 °F 88% 30.08 in 10.0 mi Calm Calm - N/A   Clear
10:35 PM 53.6 °F 51.8 °F 94% 30.08 in 10.0 mi Calm Calm - N/A   Clear
10:55 PM 53.6 °F 51.8 °F 94% 30.08 in 10.0 mi Calm Calm - N/A   Clear